De Queen, AR

6:43 PM CST on November 13, 2019 (GMT -0600)
Helms Sevier County

Weather History for KDEQ - October, 2019

Change the Weather History Date:

Wednesday, October 23, 2019

  Actual Average Record
Temperature  
Mean Temperature 57 °F 61 °F  
Max Temperature 75 °F 74 °F 93 °F (1939)
Min Temperature 39 °F 48 °F 28 °F (1937)
Degree Days  
Heating Degree Days 8 5  
Month to date heating degree days 92 73  
Since 1 July heating degree days 92 82  
Cooling Degree Days 0 2  
Month to date cooling degree days 96 60  
Year to date cooling degree days 2313 1925  
Growing Degree Days 7 (Base 50)    
Moisture  
Dew Point 41 °F    
Average Humidity 77    
Maximum Humidity 96    
Minimum Humidity 25    
Precipitation  
Precipitation 0.00 in 0.16 in 2.14 in (2015)
Month to date precipitation 2.51 3.45  
Year to date precipitation 44.60 38.65  
Snow  
Snow 0.00 in - - ()
Month to date snowfall 0.0  
Since 1 July snowfall 0.0  
Since 1 September snowfall 0.0  
Snow Depth 0.00 in    
Sea Level Pressure  
Sea Level Pressure 30.09 in    
Wind  
Wind Speed 2 mph ()    
Max Wind Speed 16 mph    
Max Gust Speed 22 mph    
Visibility 7.4 miles    
Events Fog    
T = Trace of Precipitation, MM = Missing Value Source: Averaged Metar Reports

Daily Weather History Graph

Daily Weather History Graph

Search for Another Location

Airport or City:

Astronomy

Oct. 23, 2019 Rise Set
Actual Time 7:29 AM CDT 6:34 PM CDT
Civil Twilight 7:03 AM CDT 6:59 PM CDT
Nautical Twilight 6:34 AM CDT 7:28 PM CDT
Astronomical Twilight 6:05 AM CDT 7:57 PM CDT
Moon 2:08 AM CDT (10/23) 4:07 PM CDT (10/23)
Length of Visible Light 11h 56m
Length of Day
11h 05m
Waning Crescent, 26% of the Moon is Illuminated
Oct 23
Waning Crescent
Oct 27
New
Nov 4
First Quarter
Nov 12
Full
Nov 19
Last Quarter

Hourly Weather History & Observations

Time (CDT) Temp. Windchill Dew Point Humidity Pressure Visibility Wind Dir Wind Speed Gust Speed Precip Events Conditions
12:16 AM 43.0 °F - 41.0 °F 93% 30.12 in 1.8 mi Calm Calm - N/A   Clear
12:26 AM 44.1 °F 42.5 °F 41.0 °F 89% 30.12 in 3.0 mi East 3.5 mph - N/A   Clear
12:53 AM 43.0 °F - 41.0 °F 93% 30.11 in 5.0 mi Calm Calm - N/A   Clear
1:53 AM 43.0 °F 40.3 °F 39.9 °F 89% 30.11 in 9.0 mi East 4.6 mph - N/A   Clear
2:53 AM 42.1 °F - 39.9 °F 92% 30.11 in 10.0 mi Calm Calm - N/A   Clear
3:30 AM 41.0 °F 38.0 °F 37.9 °F 89% 30.11 in 2.5 mi ENE 4.6 mph - N/A   Clear
3:37 AM 41.0 °F - 39.0 °F 93% 30.11 in 9.0 mi Calm Calm - N/A   Clear
3:53 AM 42.1 °F 40.2 °F 39.0 °F 89% 30.10 in 10.0 mi NE 3.5 mph - N/A   Clear
4:53 AM 41.0 °F - 39.0 °F 93% 30.10 in - Calm Calm - N/A   Clear
5:29 AM 39.9 °F - 37.9 °F 93% 30.12 in 1.5 mi Calm Calm - N/A   Clear
5:38 AM 39.9 °F - 37.9 °F 93% 30.11 in - Calm Calm - N/A   Clear
5:53 AM 41.0 °F - 37.9 °F 89% 30.11 in - Calm Calm - N/A   Clear
6:11 AM 39.9 °F - 37.9 °F 93% 30.11 in 2.0 mi Calm Calm - N/A   Partly Cloudy
6:13 AM 39.9 °F - 37.9 °F 93% 30.12 in 1.0 mi Calm Calm - N/A   Mist
6:20 AM 39.9 °F - 37.9 °F 93% 30.12 in 0.5 mi Calm Calm - N/A Fog Fog
6:25 AM 39.9 °F 37.8 °F 37.9 °F 93% 30.12 in 2.5 mi East 3.5 mph - N/A   Partly Cloudy
6:32 AM 41.0 °F 39.0 °F 37.9 °F 89% 30.12 in 9.0 mi East 3.5 mph - N/A   Partly Cloudy
7:53 AM 41.0 °F 39.0 °F 39.0 °F 93% 30.11 in 10.0 mi East 3.5 mph - N/A   Clear
8:53 AM 48.0 °F - 44.1 °F 86% 30.13 in 10.0 mi Calm Calm - N/A   Clear
9:53 AM 57.0 °F - 48.0 °F 72% 30.14 in 10.0 mi NNE 4.6 mph - N/A   Clear
12:53 PM 72.0 °F - 37.9 °F 29% 30.09 in 10.0 mi South 13.8 mph - N/A   Clear
1:53 PM 73.9 °F - 37.9 °F 27% 30.06 in 10.0 mi South 10.4 mph - N/A   Clear
2:53 PM 75.0 °F - 37.0 °F 25% 30.02 in 10.0 mi South 9.2 mph 19.6 mph N/A   Clear
3:53 PM 75.0 °F - 37.0 °F 25% 30.00 in 10.0 mi SSW 9.2 mph - N/A   Clear
4:53 PM 73.9 °F - 39.0 °F 28% 29.99 in 10.0 mi SSE 10.4 mph - N/A   Clear
6:53 PM 62.1 °F - 46.0 °F 56% 30.01 in 10.0 mi SE 3.5 mph - N/A   Clear
7:53 PM 55.0 °F - 48.0 °F 77% 30.03 in 10.0 mi Calm Calm - N/A   Clear
8:53 PM 51.1 °F - 46.9 °F 86% 30.06 in 10.0 mi Calm Calm - N/A   Clear
9:53 PM 52.0 °F - 48.0 °F 86% 30.07 in 10.0 mi ENE 4.6 mph - N/A   Overcast
10:53 PM 55.0 °F - 46.9 °F 74% 30.08 in 10.0 mi East 3.5 mph - N/A   Overcast
11:53 PM 55.9 °F - 46.0 °F 69% 30.06 in 10.0 mi East 5.8 mph - N/A   Mostly Cloudy